Wetbulb
31.20 30.21 29.86 29.20 29.12 26.92 27.86 26.56 26.18 26.29 25.76 23.17 22.29 21.37 20.53 18.42 16.64 18.15 20.51 25.05 28.89 29.09 30.02 30.01 29.79 30.49 29.72 30.11 30.48 30.48 29.94 30.04 27.20 27.68 23.70 29.14 28.38 26.19 27.61 25.77 28.16 28.33 27.33
29.18 29.58 29.90 29.26 28.30 27.26 26.25 24.88 24.01 24.05 20.82 22.11 20.92 22.28 19.16 20.66 23.75 26.29 27.15 28.34 27.92 27.77 28.55 29.05 28.71 29.95 29.38 29.93 29.86 29.37 29.16 29.77 28.35 26.79 29.05 29.04 23.92 23.88 22.98 23.65 28.38 29.42 27.00
28.20 28.14 27.72 27.56 27.06 25.66 24.34 24.22 24.23 25.01 23.96 22.72 24.38 24.38 26.37 27.76 27.71 27.98 27.98 27.88 27.79 27.76 28.10 28.57 28.69 28.96 28.58 28.80 28.95 28.61 29.10 29.86 29.47 28.16 27.35 28.84 26.21 22.90 24.20 24.20 24.19 25.11 28.09
24.63 25.22 25.15 25.22 26.01 25.63 24.92 23.89 24.45 24.04 23.86 24.18 24.39 25.49 27.69 27.89 27.93 27.68 27.74 27.37 27.51 27.78 28.47 28.61 28.73 28.86 28.61 28.41 27.92 27.59 28.12 27.64 27.84 27.23 27.20 27.11 27.53 21.99 20.07 23.71 25.24 24.96 25.90
21.90 22.28 22.39 22.28 22.47 22.59 22.76 22.63 23.07 22.91 22.85 21.48 21.56 26.19 27.19 27.49 27.66 27.30 27.34 27.02 26.75 26.79 27.63 28.90 29.51 29.62 30.52 29.69 27.72 26.74 25.99 25.52 25.40 25.26 24.92 25.30 24.52 20.94 21.18 20.78 22.32 22.51 23.86
19.33 19.77 19.49 20.19 20.78 20.97 21.00 20.59 21.68 21.77 20.80 20.67 22.25 25.11 24.78 25.85 28.38 29.82 29.08 27.01 27.12 27.11 26.94 28.04 28.98 28.91 29.85 31.10 30.89 30.08 27.14 24.76 23.98 23.89 24.03 23.32 23.36 21.71 20.55 20.13 17.22 17.13 19.64
20.30 19.97 20.16 19.85 19.88 19.38 20.54 20.14 19.48 19.09 19.20 18.47 18.71 22.24 23.72 25.05 28.19 29.33 29.85 28.84 27.46 27.29 27.57 28.10 27.70 28.22 27.56 27.45 28.87 30.08 30.18 30.87 29.43 25.15 23.15 23.56 21.63 23.78 22.34 18.67 16.21 15.29 17.04
20.46 21.33 21.29 20.97 20.90 21.06 21.02 20.50 20.67 21.04 20.72 20.56 20.21 20.53 20.84 21.75 26.91 28.15 29.01 28.40 28.53 28.46 28.00 27.60 26.90 26.56 27.01 26.30 25.15 24.53 25.39 26.39 28.17 28.93 27.62 26.05 25.32 24.52 24.04 22.77 19.23 15.34 14.94
20.56 20.34 20.47 20.20 19.41 19.46 19.12 18.81 19.07 20.15 20.71 21.98 24.45 24.49 24.04 24.55 27.88 28.70 28.28 27.64 27.25 27.59 28.06 27.61 26.97 26.17 27.11 28.23 26.33 24.85 24.31 24.43 28.09 30.60 31.18 31.74 32.17 32.35 29.53 24.06 20.76 17.88 22.86
20.24 20.01 20.04 20.00 19.35 18.24 18.62 19.21 20.56 20.50 21.12 21.99 22.53 22.80 23.32 23.37 26.92 28.26 28.63 28.00 26.96 26.96 27.21 27.27 28.22 27.69 28.97 29.63 27.36 26.10 24.47 25.00 24.16 21.65 22.83 27.90 30.22 29.05 32.93 29.95 27.78 23.85 23.54
19.32 19.09 18.79 18.78 18.25 18.53 18.72 19.13 18.73 18.53 19.61 18.47 19.09 19.90 19.98 21.02 21.88 26.41 28.13 26.96 27.12 26.69 26.61 26.23 26.90 29.47 30.40 31.18 31.78 28.65 26.95 26.73 25.08 23.84 21.89 22.01 21.39 21.96 22.59 23.32 24.68 25.18 20.83
17.00 16.85 16.20 15.42 17.85 18.27 16.45 16.88 16.75 16.66 16.75 17.25 17.16 19.23 19.92 20.92 23.00 25.09 27.01 27.88 27.97 26.32 25.20 25.43 25.88 28.69 29.45 30.31 30.03 30.89 31.86 31.62 29.51 23.94 22.45 22.54 19.80 20.30 21.72 22.83 24.07 25.44 26.41
14.28 14.03 13.69 14.71 17.02 17.43 13.23 14.25 15.03 15.92 17.14 17.45 19.10 18.78 19.35 22.06 21.46 25.73 27.13 27.33 27.51 26.61 25.90 26.07 28.16 28.58 28.92 29.33 30.40 31.00 29.81 27.98 25.36 24.57 24.88 25.09 22.58 23.00 19.92 16.47 18.26 21.10 23.58
12.99 12.89 13.62 13.35 14.62 14.27 17.48 17.08 16.17 14.76 14.86 17.04 16.50 16.49 16.36 16.94 18.47 18.47 19.94 17.74 21.13 20.31 20.35 16.00 20.72 23.04 24.26 24.79 19.93 23.61 21.99 20.83 17.72 16.39 16.35 19.18 16.92 14.93 16.64 18.97 19.18 16.83 21.38
12.68 12.76 13.51 14.21 12.73 13.15 14.50 14.37 15.36 15.28 15.31 11.57 11.33 12.55 10.20 9.55 15.33 22.34 20.16 15.54 13.08 18.04 9.39 3.27 4.21 5.80 9.00 11.44 12.74 12.64 11.99 12.87 13.24 15.32 18.72 19.79 19.11 18.76 20.70 14.28 20.46 17.41 22.09
11.76 12.64 12.55 12.13 10.28 11.49 11.19 10.83 17.27 19.91 21.73 23.10 23.42 18.95 16.93 21.67 23.99 24.38 25.31 26.02 24.93 24.29 1.28 -0.20 1.04 3.12 6.32 7.90 8.48 8.31 7.20 8.95 9.76 13.60 11.17 12.08 13.48 14.33 15.45 15.20 14.77 14.53 14.94
9.20 10.40 10.01 10.37 9.34 8.08 6.76 6.94 5.62 10.23 17.70 20.20 22.18 23.43 24.25 24.10 24.23 24.38 24.15 24.53 25.11 23.66 1.81 -0.73 0.90 3.72 6.31 6.61 6.57 3.19 3.58 3.80 1.02 2.46 4.74 6.30 8.10 7.11 8.64 8.59 13.22 14.30 13.16
4.73 6.04 3.77 2.72 1.90 1.36 0.94 1.40 -0.13 -0.14 1.77 5.33 12.21 16.69 19.44 21.62 22.71 23.47 24.09 23.31 8.62 9.81 -0.36 1.61 4.74 3.71 3.21 2.59 1.99 0.21 0.16 -0.51 -1.13 0.25 -0.42 -1.26 -2.33 0.50 0.32 3.40 8.23 8.87 8.55
5.89 4.59 3.40 -0.49 -2.82 -0.27 -0.51 -0.45 -0.44 -0.47 1.21 4.46 1.96 9.19 10.21 17.98 20.35 21.94 23.17 13.95 9.42 7.90 6.08 3.99 5.41 6.02 5.10 2.49 1.47 0.26 -0.86 -0.94 -0.75 -4.45 -7.00 -6.57 -6.62 -4.59 -4.95 -3.43 -1.44 2.91 5.48
5.24 6.02 3.11 1.24 0.41 -3.04 -0.82 0.04 0.68 2.22 3.55 4.19 4.81 6.00 -0.31 -2.47 -1.61 0.81 1.18 -0.79 -0.46 3.39 4.16 3.27 6.35 2.86 2.25 1.41 0.71 -0.41 -0.81 -2.57 -3.63 -3.89 -2.08 -4.59 -8.00 -8.91 -5.57 -7.78 -8.34 -4.19 -5.52
5.11 3.50 3.88 -2.12 -0.75 0.38 0.55 0.88 1.83 0.56 2.58 3.54 4.74 5.07 13.28 2.50 3.97 4.52 5.16 -0.81 2.71 3.93 5.02 3.85 4.07 5.26 4.15 3.42 2.41 1.61 0.90 2.61 -0.35 -0.96 -2.04 -4.45 -7.88 -9.49 -6.82 -3.81 -4.37 -3.88 -4.14
1.59 1.28 -4.22 -3.97 -4.54 -4.94 -2.74 -1.92 -2.19 -1.41 1.21 1.79 3.45 0.52 14.57 10.86 4.26 5.75 3.77 4.17 4.56 3.02 6.68 6.61 6.64 4.88 6.09 4.51 2.09 0.19 0.41 0.57 -0.74 -2.97 -3.04 -3.12 -5.54 -6.62 -11.08 -9.92 -6.48 -4.72 -4.57
-11.32 -11.05 -10.88 -10.88 -8.31 -5.81 -5.15 -3.65 -0.59 0.12 1.65 2.25 2.57 2.62 -2.38 0.17 0.24 1.48 2.64 4.29 1.54 -0.09 -0.55 1.30 5.46 5.82 -0.90 1.86 2.62 4.00 2.46 1.88 3.38 2.62 0.50 -1.28 -2.83 -3.62 -6.30 -7.05 -9.61 -10.81 -9.07
-10.07 -6.88 -5.77 -5.64 -6.88 -6.68 -3.24 -0.45 0.35 0.16 1.34 1.72 0.31 0.29 0.61 1.01 0.82 0.83 0.80 -0.32 0.47 1.88 -1.56 -1.72 1.76 3.07 4.53 2.14 2.11 2.45 2.92 2.69 0.03 1.59 0.03 -2.00 -3.35 -3.98 -6.23 -12.06 -9.69 -7.31 -8.85
-8.78 -6.42 -5.23 -3.83 -5.46 -3.47 -3.46 -2.21 -0.58 0.09 0.59 1.36 1.54 0.87 0.89 -0.99 0.59 0.90 0.87 -1.54 0.74 2.43 2.84 2.76 1.90 3.65 3.71 3.47 4.48 2.18 3.07 7.04 5.71 0.61 -2.20 -2.96 -4.88 -4.89 -7.41 -8.11 -9.24 -12.30 -10.45
-6.77 -6.55 -4.65 -3.51 -4.03 -3.50 -2.79 -1.70 -0.92 -0.81 -0.71 -0.10 -0.10 0.05 0.36 0.50 0.58 0.72 0.40 -2.26 1.65 2.92 2.80 4.34 4.92 3.90 4.20 4.74 3.51 5.66 5.70 7.70 5.06 4.15 1.45 -0.25 -1.98 -3.40 -4.63 -4.67 -4.82 -7.80 -6.15
MSLP
1010.14 1011.15 1011.99 1012.68 1013.21 1013.96 1014.40 1014.87 1015.29 1015.72 1016.42 1017.03 1017.32 1017.76 1018.16 1018.46 1018.89 1019.04 1019.03 1019.09 1019.23 1019.60 1019.68 1019.76 1019.94 1019.88 1020.07 1020.14 1020.48 1020.49 1020.72 1021.13 1021.14 1020.92 1020.75 1020.54 1020.35 1020.22 1019.98 1019.91 1019.76 1019.55 1019.31
1010.83 1011.30 1011.94 1012.75 1013.41 1014.21 1014.60 1014.96 1015.24 1015.77 1016.44 1016.84 1017.22 1017.46 1017.80 1018.17 1018.46 1018.59 1018.77 1018.77 1019.13 1019.12 1019.23 1019.39 1019.62 1019.52 1019.83 1019.79 1020.05 1020.11 1020.32 1020.53 1020.89 1020.68 1020.54 1020.67 1020.59 1020.31 1020.02 1019.95 1019.45 1019.21 1019.07
1011.42 1012.07 1012.36 1013.03 1013.67 1014.43 1014.76 1014.94 1015.34 1015.76 1016.33 1016.70 1016.96 1017.27 1017.47 1017.79 1018.20 1018.27 1018.40 1018.46 1018.71 1018.57 1018.72 1018.84 1019.31 1019.19 1019.29 1019.34 1019.50 1019.91 1019.95 1020.10 1020.33 1020.53 1020.35 1020.49 1020.51 1020.33 1020.03 1019.75 1019.53 1019.15 1018.79
1012.19 1012.64 1013.10 1013.47 1013.93 1014.39 1014.65 1015.00 1015.40 1015.70 1016.03 1016.27 1016.62 1016.89 1017.29 1017.35 1017.74 1017.73 1018.00 1018.22 1018.29 1017.96 1018.21 1018.49 1018.82 1018.78 1018.72 1018.91 1018.98 1019.46 1019.75 1019.87 1019.96 1020.08 1020.03 1020.22 1020.37 1020.17 1020.18 1020.08 1019.60 1019.21 1018.81
1012.81 1013.21 1013.50 1013.92 1014.32 1014.57 1014.78 1014.93 1015.29 1015.64 1015.93 1016.02 1016.38 1016.60 1016.85 1016.91 1017.21 1017.43 1017.45 1017.65 1017.76 1017.47 1017.65 1018.04 1018.24 1018.27 1018.28 1018.45 1018.47 1019.07 1019.33 1019.55 1019.56 1019.61 1019.66 1019.88 1020.04 1020.10 1020.11 1019.85 1019.74 1019.40 1018.87
1013.27 1013.54 1013.89 1014.15 1014.39 1014.62 1014.85 1015.12 1015.50 1015.62 1015.72 1015.93 1016.12 1016.34 1016.30 1016.42 1016.72 1016.85 1016.83 1017.03 1017.19 1016.97 1017.09 1017.50 1017.57 1017.83 1017.94 1018.04 1017.88 1018.38 1018.92 1019.00 1019.08 1019.27 1019.35 1019.39 1019.46 1019.55 1019.54 1019.63 1019.53 1019.87 1019.71
1013.42 1013.75 1013.90 1014.12 1014.35 1014.61 1014.92 1015.12 1015.47 1015.62 1015.72 1015.81 1016.00 1015.90 1015.94 1015.95 1016.36 1016.27 1016.19 1016.30 1016.53 1016.33 1016.46 1016.79 1017.06 1017.18 1017.37 1017.55 1017.57 1017.71 1017.88 1017.93 1018.17 1018.59 1018.71 1018.76 1018.84 1018.79 1019.01 1019.18 1019.32 1019.41 1019.56
1013.35 1013.61 1013.84 1014.12 1014.30 1014.53 1014.82 1014.98 1015.11 1015.17 1015.29 1015.53 1015.58 1015.67 1015.60 1015.81 1016.00 1015.76 1015.78 1015.82 1015.73 1015.71 1015.88 1016.27 1016.40 1016.77 1016.96 1017.20 1017.47 1017.61 1017.37 1017.29 1017.22 1017.20 1017.38 1017.54 1017.79 1018.08 1018.32 1018.47 1018.72 1018.94 1018.93
1013.36 1013.78 1013.86 1014.03 1014.32 1014.72 1014.86 1014.72 1014.98 1014.94 1014.97 1014.98 1014.79 1014.90 1015.11 1015.28 1015.20 1015.12 1015.27 1015.26 1015.11 1015.07 1015.19 1015.44 1015.78 1016.06 1016.32 1016.42 1016.75 1017.07 1016.87 1016.49 1016.61 1016.48 1016.47 1016.55 1016.78 1016.93 1017.31 1017.92 1018.49 1019.04 1018.84
1013.15 1013.33 1013.47 1013.99 1014.28 1014.53 1014.60 1014.58 1014.90 1014.90 1014.62 1014.58 1014.67 1014.81 1014.82 1014.81 1014.68 1014.55 1014.55 1014.63 1014.56 1014.68 1014.61 1014.74 1015.10 1015.26 1015.24 1015.36 1015.30 1015.53 1016.11 1016.01 1016.09 1016.04 1015.97 1015.83 1015.89 1016.10 1016.09 1016.35 1016.95 1017.62 1017.96
1012.95 1013.19 1013.54 1013.95 1014.29 1014.38 1014.71 1015.09 1015.19 1014.97 1014.72 1014.83 1014.70 1014.73 1014.67 1014.56 1014.44 1014.43 1014.23 1014.11 1014.35 1014.24 1014.23 1014.30 1014.32 1014.42 1014.52 1014.55 1014.36 1014.42 1014.58 1015.00 1015.16 1015.34 1015.53 1015.65 1015.65 1015.73 1015.86 1015.88 1015.92 1016.14 1016.56
1013.45 1013.86 1014.22 1014.55 1014.51 1014.63 1014.90 1015.06 1015.18 1015.02 1014.83 1014.81 1014.75 1014.53 1014.28 1014.16 1013.99 1014.02 1014.09 1013.89 1014.14 1014.05 1014.14 1013.99 1014.06 1014.05 1014.11 1014.00 1013.75 1013.82 1013.71 1013.87 1014.17 1014.50 1014.98 1015.16 1015.35 1015.38 1015.20 1015.07 1014.93 1014.97 1014.93
1013.94 1014.46 1014.65 1014.67 1014.60 1014.67 1014.72 1015.00 1014.75 1014.62 1014.68 1014.46 1014.44 1014.56 1014.51 1014.20 1013.77 1013.72 1014.04 1013.92 1013.89 1013.92 1013.97 1013.87 1013.85 1013.84 1013.79 1013.52 1013.52 1013.18 1013.27 1013.31 1013.72 1014.29 1014.27 1014.41 1014.36 1014.34 1014.37 1014.49 1014.44 1014.43 1014.46
1014.23 1014.08 1014.45 1014.65 1014.74 1014.76 1014.67 1014.73 1014.72 1014.56 1014.36 1014.28 1014.48 1014.80 1014.74 1014.20 1013.83 1013.78 1013.98 1014.12 1014.11 1014.22 1014.17 1014.11 1014.13 1014.09 1013.87 1013.58 1013.52 1013.28 1013.17 1013.27 1013.68 1014.04 1014.29 1014.06 1013.89 1014.05 1014.13 1013.96 1014.27 1014.34 1014.44
1014.28 1014.38 1014.58 1014.73 1014.77 1014.69 1014.58 1014.44 1014.35 1014.26 1014.25 1014.35 1014.52 1014.52 1014.33 1014.07 1013.72 1013.71 1013.74 1013.96 1014.02 1013.98 1014.00 1014.41 1014.78 1014.80 1014.28 1013.86 1013.63 1013.52 1013.51 1013.31 1013.67 1013.90 1014.09 1014.10 1013.99 1013.98 1013.78 1013.38 1013.52 1013.94 1013.96
1014.30 1014.47 1014.69 1014.82 1014.87 1014.90 1014.77 1014.55 1014.12 1013.85 1013.65 1013.61 1013.64 1013.72 1013.72 1013.53 1013.44 1013.30 1013.23 1013.07 1013.28 1013.48 1014.02 1014.46 1015.00 1014.97 1014.76 1014.43 1014.34 1013.76 1013.89 1013.98 1013.92 1014.03 1014.28 1014.24 1014.14 1014.11 1013.88 1013.62 1013.55 1013.61 1013.90
1014.68 1014.77 1014.76 1014.86 1014.88 1014.81 1014.76 1014.75 1014.65 1014.11 1013.80 1013.56 1013.33 1013.14 1013.02 1013.00 1012.98 1012.91 1012.98 1012.83 1012.85 1012.89 1013.56 1014.14 1014.67 1014.73 1014.62 1014.44 1014.52 1014.17 1013.98 1014.04 1013.78 1014.19 1014.49 1014.50 1014.54 1014.52 1014.33 1014.06 1013.81 1013.62 1013.74
1014.75 1014.88 1014.88 1014.80 1014.90 1014.98 1015.05 1015.09 1015.05 1015.21 1014.79 1014.22 1013.61 1013.45 1013.18 1012.88 1012.64 1012.52 1012.44 1012.47 1012.61 1012.91 1013.36 1013.72 1014.08 1014.17 1014.18 1014.33 1014.28 1014.16 1013.95 1013.92 1014.09 1014.36 1014.43 1014.43 1014.59 1014.69 1014.66 1014.49 1014.20 1014.09 1014.00
1014.58 1014.70 1014.77 1014.84 1014.92 1014.99 1014.99 1014.99 1014.92 1014.92 1014.78 1014.35 1014.26 1013.51 1013.25 1012.92 1012.54 1012.32 1012.20 1012.36 1012.59 1012.77 1012.93 1013.13 1013.20 1013.46 1013.50 1013.48 1013.47 1013.39 1013.51 1013.54 1013.77 1014.08 1014.02 1014.20 1014.56 1014.65 1014.62 1014.63 1014.48 1014.16 1014.05
1014.09 1014.26 1014.48 1014.67 1014.76 1014.81 1014.76 1014.76 1014.65 1014.54 1014.31 1014.01 1013.72 1013.27 1013.31 1013.28 1012.83 1012.62 1012.51 1012.49 1012.39 1012.26 1012.37 1012.46 1012.33 1012.39 1012.42 1012.48 1012.39 1012.39 1012.55 1012.77 1012.98 1013.38 1013.33 1013.56 1013.98 1014.50 1014.38 1014.39 1014.34 1014.39 1014.27
1013.86 1014.01 1014.10 1014.26 1014.33 1014.28 1014.25 1014.24 1014.05 1013.93 1013.73 1013.35 1012.86 1012.65 1012.36 1012.53 1012.46 1012.27 1011.96 1011.89 1011.98 1011.79 1011.70 1011.67 1011.57 1011.42 1011.32 1011.25 1011.30 1011.48 1011.69 1011.78 1011.85 1012.12 1012.42 1012.69 1013.09 1013.79 1013.66 1013.84 1013.86 1013.91 1013.96
1013.81 1013.87 1013.93 1013.99 1013.91 1013.87 1013.69 1013.57 1013.46 1013.21 1012.93 1012.69 1012.26 1012.01 1011.58 1011.53 1011.57 1011.58 1011.46 1011.33 1010.99 1010.91 1010.82 1010.69 1010.52 1010.48 1010.35 1010.40 1010.43 1010.65 1010.64 1010.69 1010.81 1011.05 1011.39 1011.62 1012.01 1012.53 1012.81 1013.08 1013.36 1013.51 1013.64
1013.80 1013.61 1013.52 1013.44 1013.31 1013.20 1013.08 1012.86 1012.70 1012.48 1012.15 1011.88 1011.70 1011.52 1011.37 1011.13 1011.06 1011.07 1010.98 1010.55 1010.30 1010.12 1010.02 1009.99 1009.85 1009.64 1009.51 1009.48 1009.47 1009.47 1009.48 1009.43 1009.50 1009.76 1010.18 1010.61 1011.01 1011.43 1011.84 1012.28 1012.67 1013.04 1013.35
1013.40 1013.10 1012.96 1012.79 1012.72 1012.65 1012.48 1012.17 1011.88 1011.59 1011.37 1011.11 1010.89 1010.70 1010.50 1010.29 1010.15 1009.98 1009.77 1009.59 1009.45 1009.32 1009.22 1009.16 1009.04 1008.88 1008.80 1008.79 1008.72 1008.60 1008.52 1008.53 1008.71 1008.88 1009.19 1009.62 1010.11 1010.55 1011.08 1011.52 1011.83 1012.27 1012.50
1012.38 1012.18 1012.07 1011.93 1011.88 1011.74 1011.55 1011.21 1010.81 1010.46 1010.21 1010.06 1009.84 1009.65 1009.44 1009.30 1009.22 1009.00 1008.79 1008.71 1008.62 1008.53 1008.38 1008.25 1008.09 1007.99 1007.91 1007.83 1007.79 1007.79 1007.76 1007.70 1007.86 1008.18 1008.60 1008.92 1009.30 1009.81 1010.46 1010.84 1011.19 1011.54 1011.92
1011.04 1010.95 1010.86 1010.77 1010.67 1010.52 1010.32 1010.02 1009.70 1009.52 1009.34 1009.12 1008.94 1008.82 1008.74 1008.62 1008.40 1008.21 1008.09 1008.05 1007.98 1007.79 1007.56 1007.39 1007.23 1007.05 1006.94 1006.91 1006.91 1006.91 1006.94 1006.95 1007.13 1007.40 1007.78 1008.17 1008.64 1009.14 1009.63 1010.15 1010.46 1010.76 1011.03
Wind_Speed
10 7 8 6 6 5 5 5 6 5 5 6 6 6 6 5 4 4 4 3 4 5 5 5 5 4 3 3 3 4 4 4 6 3 1 2 3 2 3 3 4 4 3
6 7 7 7 7 6 5 5 5 5 3 5 5 5 4 4 4 5 4 4 7 7 6 6 6 4 6 5 4 6 5 5 4 8 3 4 3 3 3 4 4 3 3
7 7 7 6 6 5 5 5 5 5 5 5 6 5 5 5 5 5 6 6 7 7 6 6 6 7 6 5 5 4 4 4 4 4 4 2 2 2 2 2 3 3 2
5 5 5 5 5 5 4 5 5 5 5 5 4 5 5 5 6 6 6 7 7 6 6 7 7 8 7 7 6 5 5 5 5 5 6 7 6 2 1 2 3 1 3
5 4 4 3 3 3 4 4 4 4 5 4 4 4 4 5 5 6 7 7 8 7 7 7 7 8 12 10 5 6 8 7 7 7 7 7 6 2 3 1 2 2 3
4 4 4 4 4 4 3 3 4 4 4 4 5 6 6 5 11 15 11 7 8 7 7 7 7 8 11 14 14 16 11 9 9 7 7 7 7 3 2 2 2 2 3
4 4 4 3 3 4 4 5 4 4 3 5 5 5 6 5 14 16 16 7 8 8 7 7 6 5 7 7 13 17 17 19 18 8 9 8 4 5 3 2 2 3 4
5 5 4 4 3 2 3 4 4 4 5 5 5 6 6 7 17 16 15 8 6 7 7 7 6 9 6 7 9 10 9 10 11 10 11 10 8 5 5 5 5 3 2
5 5 4 4 4 4 4 3 2 2 3 4 5 6 7 8 13 14 14 8 8 9 8 8 7 7 9 14 10 10 9 9 11 19 20 19 18 18 12 3 3 1 6
6 5 4 4 3 3 2 1 2 2 3 2 4 4 5 4 10 13 11 5 7 5 7 8 13 11 15 17 11 11 11 10 6 5 4 11 13 10 16 10 7 7 8
4 4 3 3 2 2 2 2 3 2 2 2 3 4 4 5 6 12 13 6 4 4 5 5 5 14 16 17 17 9 11 8 10 7 6 6 4 5 5 5 6 8 7
4 3 3 2 3 3 4 3 2 3 3 3 2 3 3 4 6 6 9 10 8 4 3 2 4 12 14 15 12 13 14 12 5 5 5 6 5 5 6 7 9 9 8
3 4 4 3 3 3 3 3 2 2 3 2 1 1 2 1 1 4 3 2 4 2 1 4 7 8 10 10 12 11 9 4 3 4 6 7 5 7 5 2 3 4 5
4 4 3 3 3 2 2 2 2 2 1 1 1 1 1 1 1 0 1 2 4 3 3 2 4 7 10 11 4 5 1 2 3 3 3 3 2 1 3 4 4 3 4
2 2 2 2 2 2 2 2 2 2 3 3 3 3 2 2 3 5 5 2 3 5 0 2 3 3 3 2 2 2 1 1 0 2 3 4 3 3 4 2 3 3 5
2 2 2 2 2 2 2 2 4 6 7 10 11 7 4 10 12 11 13 11 10 10 3 1 2 2 3 2 3 2 1 1 2 2 0 1 1 1 1 1 1 3 3
4 3 2 2 2 1 1 0 2 4 6 8 9 11 13 12 13 13 13 14 15 11 2 2 3 3 4 3 4 3 3 3 2 2 2 2 2 1 1 1 2 2 2
3 4 2 2 2 1 2 3 2 2 3 4 5 6 10 13 14 15 15 13 4 5 2 3 4 4 4 5 4 4 3 2 2 3 3 3 3 3 2 2 2 2 1
4 3 3 2 2 3 2 2 2 3 4 5 3 7 6 13 15 16 17 5 4 5 4 5 6 6 6 5 5 5 5 4 4 3 3 3 3 3 3 3 3 4 3
4 6 5 3 3 3 3 4 4 5 5 5 5 6 2 0 2 3 4 3 4 5 5 6 7 6 6 6 5 5 5 4 4 4 5 4 3 4 4 4 4 3 3
3 3 5 2 4 4 3 4 4 3 5 6 7 4 11 5 7 6 6 4 6 6 7 6 6 7 6 6 5 5 6 6 5 5 5 4 4 4 4 4 4 4 3
3 3 3 4 3 4 4 4 4 5 6 7 7 5 18 8 4 5 5 6 6 6 6 6 6 6 6 6 6 6 7 7 6 5 5 5 5 5 4 3 3 3 3
3 3 3 3 4 4 4 4 6 6 7 8 7 6 4 6 6 6 7 7 4 5 4 5 7 7 4 6 6 7 7 7 7 6 6 6 5 5 5 4 4 3 3
3 5 5 4 4 4 5 7 6 8 8 8 6 6 6 6 6 7 6 5 5 5 4 5 6 9 8 6 6 6 7 5 4 6 7 5 5 5 4 3 4 5 4
5 5 6 6 5 6 6 7 7 7 7 7 7 6 6 5 6 6 5 4 5 6 7 6 6 9 10 12 11 9 9 12 8 7 4 5 6 7 4 3 4 3 4
5 6 6 5 6 6 7 7 7 7 7 7 7 7 7 7 7 7 6 5 6 7 8 6 7 11 11 9 9 10 10 11 9 9 6 6 6 4 4 5 6 3 4
Wind_Direction
139 133 136 139 134 135 142 143 148 134 154 162 163 162 167 165 180 168 184 180 208 220 223 221 219 190 190 192 200 206 210 221 253 276 271 284 294 314 307 296 275 268 266
122 128 136 134 136 148 152 159 154 156 157 167 172 170 173 178 184 192 202 203 218 218 221 219 221 203 209 192 195 207 206 206 237 259 280 286 272 262 244 278 272 257 248
118 127 123 131 142 162 165 158 165 166 174 182 176 180 187 186 204 206 211 214 219 216 216 214 220 204 207 194 194 210 203 204 214 248 263 238 260 298 326 281 272 288 264
99 114 134 146 160 170 167 172 179 181 179 184 187 177 201 196 209 209 214 223 226 219 220 221 223 216 210 198 188 204 215 218 218 235 246 259 264 280 257 250 294 274 286
111 126 140 129 137 152 168 175 180 181 192 184 194 215 203 206 211 215 219 221 225 222 221 226 223 215 213 206 182 210 220 227 229 234 243 245 246 261 212 231 252 308 286
136 143 143 148 154 166 159 167 181 182 182 185 200 212 217 232 239 240 222 219 225 224 226 225 220 215 225 231 227 220 213 215 223 226 236 237 243 234 218 218 178 60 314
141 152 154 146 154 168 176 176 194 202 184 204 213 215 224 222 240 242 243 222 222 221 221 222 216 213 208 224 240 234 234 223 220 215 230 231 233 212 194 240 225 184 217
147 148 149 153 149 148 169 184 181 178 198 205 211 211 214 231 243 245 245 244 230 219 214 215 222 251 230 225 229 236 234 240 241 235 221 229 226 215 207 200 203 218 311
154 159 149 148 156 173 192 188 205 197 206 217 216 208 212 224 236 238 238 237 235 230 216 215 218 234 236 243 238 243 242 234 239 244 246 247 247 245 224 180 229 196 269
161 152 141 155 160 173 181 177 221 219 214 215 242 235 236 235 247 245 239 232 233 224 219 216 217 224 232 243 239 241 253 251 215 222 249 252 253 248 246 222 213 224 240
108 109 117 127 159 174 170 191 219 220 201 226 238 250 248 236 246 254 253 239 240 224 219 214 214 239 251 252 246 225 228 233 225 222 221 235 230 228 232 224 203 209 212
111 122 144 164 196 160 168 189 206 185 198 231 242 267 254 237 221 246 249 244 246 233 226 215 230 255 263 260 259 260 257 254 234 202 215 224 227 232 234 226 218 214 224
135 169 182 185 192 175 172 193 185 186 204 222 228 259 295 270 241 287 343 323 354 332 245 245 272 281 291 284 275 269 267 228 202 244 242 245 209 226 231 235 228 220 225
172 167 185 190 179 197 210 206 203 196 217 218 233 223 285 325 319 251 267 339 342 350 344 345 311 308 295 281 299 282 193 178 189 215 227 234 242 227 224 203 220 193 212
178 177 204 191 210 209 227 210 217 222 192 193 220 207 209 292 266 236 237 235 235 248 340 34 8 339 312 297 293 269 260 99 110 254 245 245 231 229 240 200 222 182 221
179 189 199 191 209 210 225 282 283 268 259 246 246 217 235 246 265 260 262 266 265 276 73 155 257 259 261 281 282 282 297 246 217 173 315 309 276 271 263 295 201 186 192
218 207 204 212 215 229 302 300 309 330 312 281 274 271 266 260 260 262 267 270 272 268 150 217 231 228 254 254 255 229 229 215 167 188 189 215 217 250 248 272 264 213 232
238 251 223 223 220 230 224 229 215 228 277 299 302 293 288 281 274 270 266 269 299 299 192 210 243 229 235 240 247 242 257 271 226 214 212 199 201 193 215 228 229 203 203
219 230 224 226 224 226 218 219 216 227 244 258 291 292 276 277 278 271 265 252 228 228 224 234 235 243 242 226 229 228 222 228 226 225 225 204 199 165 216 223 233 222 186
223 231 210 218 225 228 225 222 224 230 244 251 256 255 240 20 280 257 238 236 243 248 240 232 249 234 230 228 229 220 226 222 222 222 230 212 202 188 217 211 211 206 210
221 226 230 218 228 231 229 235 239 227 247 253 256 241 253 216 237 242 255 223 232 240 248 235 235 243 236 234 227 223 225 237 221 218 214 212 188 205 203 210 204 205 197
223 233 210 224 220 226 230 226 228 235 247 252 262 250 271 273 263 260 245 246 237 225 240 244 252 237 232 230 225 225 228 230 222 209 212 209 203 207 193 188 197 196 185
219 234 239 244 233 243 247 234 240 241 248 248 249 252 231 240 240 244 247 254 248 246 231 232 252 261 228 229 221 228 230 228 225 210 209 206 204 207 193 198 184 185 181
230 233 237 238 229 234 241 252 244 238 241 244 236 235 236 237 239 240 238 235 237 242 227 225 238 248 256 242 233 228 231 230 202 211 199 190 199 195 184 184 178 193 173
228 229 227 233 227 236 238 242 245 245 243 245 250 245 247 240 247 247 244 233 243 253 255 237 236 247 244 247 249 236 231 240 225 200 186 191 192 188 179 178 176 178 168
234 231 237 237 237 236 238 247 247 242 242 244 243 245 246 248 249 251 250 241 250 250 251 248 244 236 240 245 240 242 235 230 227 209 188 186 187 184 174 191 192 171 173